Location: Firdgum
(53.2488°N, 5.5615°E)
Time: 06:13:21
(UTC+00:00)

Cosmos 1655 Rocket - Pass Details

Date: 08 December 2019
Orbit: 970 x 1007 km, 83.0° (Epoch: 17 January)

Event Time Altitude Azimuth Distance (km) Brightness Sun altitude
Rises 05:36:50 0° 349° (N) 3,688 6.8 -16.9°
Reaches altitude 10° 05:39:22 10° 350° (N) 2,733 6.1 -16.6°
Maximum altitude 05:45:38 83° 78° (ENE) 985 4.1 -15.7°
Drops below altitude 10° 05:51:51 10° 168° (SSE) 2,709 6.7 -14.8°
Sets 05:54:21 0° 169° (S) 3,653 7.4 -14.4°
